Home > Weather > Brockton > Past weeks

Flag for USA Past Weather in Brockton, Massachusetts, USA — Yesterday and Last 2 Weeks

Now
68 °F

Mild.


Feels Like: 68 °F
Forecast: 65 / 85 °F
Wind: 10 mph from North

Location: East Milton

Current Time: Aug 27, 2016 at 4:28:23 AM

Latest Report: Aug 27, 2016 at 3:54 AM


Visibility: N/A

Pressure: 30.11 "Hg

Humidity: 78%

Dew Point: 61 °F

Location of BrocktonLocation

Past Weather in Brockton — Graph

°F

Brockton Temperature Yesterday

Maximum temperature yesterday: 87 °F (at 3:54 PM)
Minimum temperature yesterday: 70 °F (at 12:54 AM)
Average temperature yesterday: 77 °F

High & Low Weather Summary for the Past Weeks

 TemperatureHumidityPressure
High94 °F (Aug 12, 2:54 PM)100% (Aug 13, 6:54 AM)30.31 "Hg (Aug 13, 6:54 AM)
Low54 °F (Aug 23, 5:54 AM)30% (Aug 21, 2:54 PM)29.75 "Hg (Aug 22, 3:54 AM)
Average74 °F69%30.02 "Hg
* Reported Aug 12 2:54 AM — Aug 27 2:54 AM, Brockton, Weather by CustomWeather, © 2016

Note: Actual official high and low records may vary slightly from our data, if they occured in-between our weather recording intervals... More about our weather records

Advertising

Brockton Weather History for the Previous 24 Hours

Scroll right to see more
 ConditionsComfort  
Time TempWeatherWind HumidityBarometerVisibility
2:54 AM
Sat, Aug 27
70 °FMild.9 mph68%30.11 "HgN/A
1:54 AM71 °FMild.10 mph68%30.10 "HgN/A
12:54 AM73 °FMild.12 mph66%30.09 "HgN/A
11:54 PM
Fri, Aug 26
73 °FMild.10 mph74%30.07 "HgN/A
10:54 PM75 °FMild.10 mph71%30.05 "HgN/A
9:54 PM76 °FMild.10 mph69%30.04 "HgN/A
8:54 PM77 °FWarm.7 mph69%30.03 "HgN/A
7:54 PM79 °FWarm.7 mph65%30.01 "HgN/A
6:54 PM82 °FWarm.7 mph60%30.00 "HgN/A
5:54 PM85 °FWarm.7 mph55%29.98 "HgN/A
4:54 PM87 °FWarm.10 mph55%29.98 "HgN/A
3:54 PM87 °FWarm.12 mph59%29.96 "HgN/A
2:54 PM83 °FWarm.12 mph70%29.96 "HgN/A
1:54 PM78 °FWarm.No wind87%29.97 "HgN/A
12:54 PM85 °FWarm.13 mph63%29.97 "HgN/A
11:54 AM83 °FWarm.10 mph70%29.98 "HgN/A
10:54 AM79 °FWarm.8 mph77%29.99 "HgN/A
9:54 AM76 °FMild.15 mph85%29.99 "HgN/A
8:54 AM75 °FMild.12 mph85%29.99 "HgN/A
7:54 AM73 °FMild.12 mph88%29.99 "HgN/A
6:54 AM70 °FMild.9 mph97%30.00 "HgN/A
5:54 AM70 °FMild.13 mph93%29.99 "HgN/A
4:54 AM70 °FMild.12 mph93%29.98 "HgN/A
Weather by CustomWeather, © 2016

See weather overviewHow to use our weather pages